STARLINK-1866 (47152 NORAD) Tracking and Keplerian Element Data

This shows tracking and keplerian element data for the satellite.

Feedback or suggestion? Click here.




ElementValue
Catalog47152
NameSTARLINK-1866
Epoch Orbit175
Epoch Day62.91667824
Epoch Year2021
RAAN244.7729
Inclination53.0552
Eccentricity0.0002148
Argument of Perigee82.9338
Mean Anonmoly355.049
Mean Motion15.06378364
Decay Rate0.00040862
L11 47152U 20088AG 21062.91667824 .00040862 00000-0 27478-2 0 9991
L22 47152 53.0552 244.7729 0002148 82.9338 355.0490 15.06378364 1756

Live tracking and technical data element details for STARLINK-1866 (NORAD 47152). STARLINK-1866 can be tracked NOW for your location showing map with azimuth and elevation plus other details from your city location.

Track the satellite on the map from your city or location and see movement details for azimuth, elevation, latitude, longitude, range, height, and movement on the map or in text.







IsCatalogInMostPopularTable: catalog: 47152, numindb: 38
Update: records affected: 1



GetName: 47152 STARLINK-1866

Hit Count: updated at: Fri, 05 Mar 2021 06:56:26 GMT